Flag for Poland Weather past 2 weeks in Kielce, Poland

Now
45 °F

Passing clouds.


Feels Like: 44 °F
Forecast: 37 / 57 °F
Wind: 3 mph from Northwest

Location: Kielce

Current Time: Sep 23, 2014 at 10:30:34 PM

Latest Report: Sep 23, 2014 at 9:00 PM


Visibility: 16 mi

Pressure: 30.02 "Hg

Humidity: 82%

Dew point: 40 °F

Location of KielceLocation

Historic Weather in Kielce — Graph

°F

Kielce temperature yesterday

Maximum temperature yesterday: 58 °F (at 4:00 PM)
Minimum temperature yesterday: 45 °F (at 11:00 PM)
Average temperature yesterday: 53 °F

Past Weeks' High & Low Weather Summary

 TemperatureHumidityPressure
High76 °F (Sep 12, 1:00 PM)100% (Sep 8, 11:00 PM)30.21 "Hg (Sep 8, 11:00 PM)
Low43 °F (Sep 18, 6:00 AM)41% (Sep 18, 4:00 PM)29.67 "Hg (Sep 22, 6:00 AM)
Average59 °F82%30.02 "Hg
* Reported Sep 8 9:00 PM — Sep 23 9:00 PM, Kielce, Weather by CustomWeather, © 2014

Note: Actual official high and low records may vary slightly from our data, if they occured in-between our weather recording intervals... More about our weather records

Advertising

Kielce weather history for previous 24 hours

 ConditionsComfort  
Time TempWeatherWind HumidityBarometerVisibility
9:00 PM
Sep 23
45 °FPassing clouds.3 mph82%30.02 "Hg16 mi
8:00 PM46 °FPassing clouds.5 mph83%30.00 "Hg11 mi
7:00 PM48 °FSprinkles. Overcast.5 mph71%29.98 "Hg9 mi
6:00 PM50 °FPartly sunny.6 mph71%29.95 "Hg25 mi
5:00 PM51 °FScattered clouds.8 mph64%29.92 "Hg22 mi
4:00 PM49 °FPartly sunny.8 mph73%29.90 "Hg25 mi
3:00 PM53 °FPartly sunny.8 mph64%29.88 "Hg14 mi
2:00 PM53 °FOvercast.10 mph63%29.87 "Hg19 mi
1:00 PM52 °FOvercast.9 mph81%29.85 "Hg12 mi
12:00 PM52 °FSprinkles. Overcast.9 mph86%29.80 "Hg6 mi
11:00 AM51 °FLight rain. Overcast.7 mph93%29.79 "Hg5 mi
10:00 AM49 °FLight rain. Low clouds.5 mph96%29.79 "Hg4 mi
9:00 AM48 °FRain. Low clouds.5 mph94%29.78 "Hg4 mi
8:00 AM48 °FFog.5 mph90%29.78 "Hg5 mi
7:00 AM47 °FOvercast.3 mph93%29.79 "Hg5 mi
6:00 AM47 °FDrizzle. Low clouds.3 mph93%29.80 "Hg6 mi
5:00 AM47 °FOvercast.3 mph94%29.79 "Hg6 mi
4:00 AM47 °FFog.3 mph93%29.80 "Hg6 mi
3:00 AM47 °FFog.2 mph93%29.81 "Hg6 mi
2:00 AM47 °FFog.3 mph94%29.81 "Hg6 mi
1:00 AM46 °FFog.2 mph97%29.82 "Hg5 mi
12:00 AM46 °FFog.1 mph99%29.81 "Hg4 mi
11:00 PM
Sep 22
45 °FFog.1 mph98%29.82 "Hg2 mi
10:00 PM46 °FFog.1 mph98%29.80 "Hg5 mi
Weather by CustomWeather, © 2014

See weather overviewHow to use our weather pages